Change the Weather History Date:

Friday, October 19, 2012

  Actual Average Record
Temperature  
Mean Temperature 82 °F -  
Max Temperature 89 °F 86 °F 89 °F (2001)
Min Temperature 76 °F 72 °F 71 °F (1997)
Cooling Degree Days 18    
Growing Degree Days 32 (Base 50)    
Moisture  
Dew Point 77 °F    
Average Humidity 78    
Maximum Humidity 95    
Minimum Humidity 60    
Precipitation  
Precipitation 0.00 in 0.27 in - ()
Sea Level Pressure  
Sea Level Pressure 29.83 in    
Wind  
Wind Speed 3 mph ()    
Max Wind Speed 10 mph    
Max Gust Speed -    
Visibility 8.3 miles    
Events Rain    
Averages and records for this station are not official NWS values.
T = Trace of Precipitation, MM = Missing Value Source: Averaged Metar Reports

Daily Weather History Graph

Daily Weather History Graph

Search for Another Location

Airport or City:

Trip Planner

Search our weather history database for the weather conditions in past years. The results will help you decide how hot, cold, wet, or windy it might be!

Date:

Astronomy

Oct. 19, 2012 Rise Set
Actual Time 5:47 AM CST 5:28 PM CST
Civil Twilight 5:25 AM CST 5:50 PM CST
Nautical Twilight 5:00 AM CST 6:15 PM CST
Astronomical Twilight 4:34 AM CST 6:41 PM CST
Moon 10:02 AM CST 9:33 PM CST
Length of Visible Light 12h 24m
Length of Day
11h 40m
Waxing Crescent, 24% of the Moon is Illuminated
Oct 19
Waxing Crescent
Oct 21
First Quarter
Oct 29
Full
Nov 6
Last Quarter
Nov 13
New

Hourly Weather History & Observations

Time (CST) Temp. Heat Index Dew Point Humidity Pressure Visibility Wind Dir Wind Speed Gust Speed Precip Events Conditions
12:00 AM 78 °F - 76 °F 93% 29.83 in 12 mi Calm Calm - -   Scattered Clouds
3:00 AM 79 °F - 76 °F 87% 29.80 in 12 mi East 2.3 mph - -   Scattered Clouds
5:00 AM 77.0 °F - 75.2 °F 94% 29.80 in 6.2 mi Calm Calm - N/A   Partly Cloudy
6:00 AM 77 °F - 76 °F 95% 29.84 in 12 mi Calm Calm - -   Partly Cloudy
6:00 AM 77.0 °F - 75.2 °F 94% 29.83 in 6.2 mi Calm Calm - N/A   Mostly Cloudy
7:00 AM 78.8 °F - 77.0 °F 94% 29.83 in 3.7 mi West 2.3 mph - N/A   Scattered Clouds
8:00 AM 82.4 °F 90.9 °F 77.0 °F 84% 29.86 in 6.2 mi Calm Calm - N/A   Scattered Clouds
9:00 AM 85 °F - 78 °F 76% 29.87 in 11 mi West 3.5 mph - - Rain Light Rain Showers
9:00 AM 84.2 °F 96.1 °F 78.8 °F 84% 29.87 in 6.2 mi West 3.5 mph - N/A Rain Light Rain Showers
10:00 AM 86.0 °F 96.9 °F 77.0 °F 74% 29.87 in 6.2 mi Calm Calm - N/A   Scattered Clouds
11:00 AM 87.8 °F 99.7 °F 77.0 °F 70% 29.85 in 6.2 mi ENE 8.1 mph - N/A   Mostly Cloudy
12:00 PM 89 °F - 77 °F 60% 29.84 in 12 mi ENE 8.1 mph - -   Partly Cloudy
12:00 PM 87.8 °F 99.7 °F 77.0 °F 70% 29.83 in 6.2 mi ENE 8.1 mph - N/A   Scattered Clouds
1:00 PM 87.8 °F 99.7 °F 77.0 °F 70% 29.81 in 6.2 mi East 8.1 mph - N/A   Partly Cloudy
2:00 PM 87.8 °F 97.6 °F 75.2 °F 66% 29.79 in 6.2 mi East 8.1 mph - N/A   Partly Cloudy
3:00 PM 88 °F - 77 °F 62% 29.79 in 16 mi ENE 9.2 mph - -   Scattered Clouds
3:00 PM 87.8 °F 99.7 °F 77.0 °F 70% 29.78 in 6.2 mi ENE 9.2 mph - N/A   Partly Cloudy
4:00 PM 87.8 °F 99.7 °F 77.0 °F 70% 29.78 in 6.2 mi ENE 10.4 mph - N/A   Partly Cloudy
5:00 PM 86.0 °F 95.1 °F 75.2 °F 70% 29.80 in 6.2 mi ENE 9.2 mph - N/A   Partly Cloudy
6:00 PM 84 °F - 76 °F 72% 29.83 in 12 mi ENE 4.6 mph - -   Scattered Clouds
6:00 PM 84.2 °F 94.1 °F 77.0 °F 79% 29.83 in 6.2 mi ENE 4.6 mph - N/A   Partly Cloudy
9:00 PM 84 °F - 76 °F 72% 29.88 in 12 mi ENE 4.6 mph - -   Scattered Clouds